STARLINK-32078, 60338

Orbit data source: Space-Track

STARLINK-32078, 60338 is a payload satellite owned by SpaceX/Seattle (US) in LEO that was launched on Fri, 02 Aug 2024 UTC via an FALCON 9 launch vehicle from the Air Force Eastern Test Range (AFETR). Payload-class satellites include a variety of spacecraft equipped with specific instruments for various scientific and technological missions. These include communications satellites like Starlink; space stations such as the ISS; scientific satellites like the Hubble; Earth observation satellites from companies like Planet Labs, Umbra, and HawkEye 360; GPS; miniature CubeSats for education and research; and military/defense satellites.

Loading next visibility...
Identifier
60338, 2024-136K
Orbit
LEO
Country
Flag of USUS
Related business
Manufacturer
SpaceX/Seattle
Mission
Operational Commercial Communications
Bus & Motor
STARLINK V2M, Unknown motor
Mass
730 kg wet, ~700 kg dry
Launch date (UTC)
2024-08-02 (2 years ago)
Launch vehicle
FALCON 9
Launch site
Air Force Eastern Test Range (AFETR)
Object type
Payload
Rocket body
Debris
Shape & HBR
Box + 2 Pan, 17.7 m
Radar Cross Section
33.884 m², Large (>1 m²)

Expand to show TLE details & history
Last TLE update: 1 day ago

TLE from 1 day ago
0 STARLINK-32078
1 60338U 24136K   26170.71030383 -.00000821  00000-0 -15601-4 0  9997
2 60338  53.1619 321.8447 0001128  85.8841 274.2288 15.30203407105286
Epoch: 2026-06-19T17:02Z
TLE epoch observation values (Epoch: 2026-06-19T17:02:50.250Z)
Latitude
-0.0001°
Longitude
158.19988°
Altitude
476.048 km
Speed
7.629 km/s
True Right ascension
21h 27m 22s
True Declination
0° 00' 00"
Sunlit
Object was in full shadow at epoch
Visualization orbit readout
Latitude
Unknown
Longitude
Unknown
Altitude
Unknown
Speed
Unknown
Apparent Right ascension
Unknown
Apparent Declination
Unknown
Sunlit
N/A
Visualization observer readout
Local Sidereal Time
07:21:27
Azimuth
Unknown
Elevation
Unknown
Doppler factor
Unknown
Orbital elements
Apogee altitude
476.234 km
Perigee altitude
474.688 km
Semi-major axis
6,853.598 km
Eccentricity
0.00011
Inclination
53.1619°
RAAN
321.8447°
Arg. of periapsis
85.8841°
True anomaly
274.21591°
Mean anomaly
274.2288°
Eccentric anomaly
274.22235°
Mean motion
3.8253 °/min
Orbital period
94.11 mins
BSTAR
-0.000015601
Loading maneuver chart data...
Computing Atmospheric mass density...
Loading historical data...
Loading historical data...
Loading historical data...
Loading historical data...
Loading historical data...
Loading historical data...
Loading historical data...

Documentation

Showing up to 5 results
|